Terminal Aerodrome Forecast
Issued by NWS Twin Cities, MN

Home | Current Version | Previous Version | Graphics & Text | Print | Product List | Glossary On
Versions: 1 2 3 4 5 6 7 8 9 10 11 12 13 14 15
000
FTUS43 KMPX 190520
TAFEAU
TAF
KEAU 190520Z 1906/2006 31008KT P6SM BKN030
     FM190800 30009KT P6SM SKC
     FM191700 27007KT P6SM SCT100
     FM192300 21005KT P6SM FEW250=

USA.gov is the U.S. government's official web portal to all federal, state and local government web resources and services.